DW1115 Weather Reports


time (UTC)temp
F
wind
direction
speed
knots
gust
knots
rain 1hr
in
rain 24hr
in
rain mn
in
humidity
%
barometer
mb
20260506084535 51 360 2.6 4.3 0.00 0.00 0.00 86 1019.1
20260506084352 51 15 2.6 4.3 0.00 0.00 0.00 86 1019.1
20260506083335 52 355 0.9 2.6 0.00 0.00 0.00 87 1019.1
20260506083041 51 13 0.0 0.0 0.00 0.00 0.00 87 1019.1
20260506082344 52 360 0.0 0.0 0.00 0.00 0.00 87 1019.2
20260506081536 51 355 0.0 2.6 0.00 0.00 0.00 87 1019.1
20260506081326 52 355 0.0 3.5 0.00 0.00 0.00 87 1019.2
20260506080337 52 355 1.7 1.7 0.00 0.00 0.00 87 1019.1
20260506073334 52 355 0.0 0.0 0.00 0.00 0.00 87 1018.8
20260506073112 52 355 0.0 0.0 0.00 0.00 0.00 87 1018.7
20260506072349 52 355 0.0 0.0 0.00 0.00 0.00 87 1018.8
20260506071544 52 355 0.0 0.9 0.00 0.00 0.00 85 1018.7
20260506071347 52 355 0.0 0.9 0.00 0.00 0.00 86 1018.7
20260506070331 52 355 1.7 2.6 0.00 0.00 0.00 86 1018.6
20260506062326 53 263 0.9 2.6 0.00 0.00 0.00 84 1018.4
20260506061547 53 155 0.0 0.0 0.00 0.00 0.00 83 1018.3
20260506061354 53 155 0.0 0.0 0.00 0.00 0.00 83 1018.3
20260506060323 54 155 0.0 1.7 0.00 0.00 0.00 82 1018.2
20260506051350 55 305 7.8 11.3 0.00 0.00 0.00 82 1017.9
20260506050350 55 296 9.6 11.3 0.00 0.00 0.00 82 1017.7
20260506044524 55 297 9.6 13.0 0.00 0.00 0.00 81 1017.4
20260506044323 55 289 9.6 13.0 0.00 0.00 0.00 81 1017.5
20260506043328 55 313 8.7 12.2 0.00 0.00 0.00 80 1017.3
20260506043053 55 312 9.6 12.2 0.00 0.00 0.00 80 1017.2
20260506042355 56 299 8.7 12.2 0.00 0.00 0.00 80 1017.1
20260506041530 55 311 8.7 11.3 0.00 0.00 0.00 80 1016.9
20260506041325 56 295 7.8 11.3 0.00 0.00 0.00 79 1017.1
20260506040354 56 286 8.7 11.3 0.00 0.00 0.00 79 1016.7
20260506035336 56 309 8.7 13.0 0.00 0.00 0.00 78 1016.7
20260506034510 56 311 10.4 13.9 0.00 0.00 0.00 78 1016.6
20260506034328 57 291 8.7 12.2 0.00 0.00 0.00 77 1016.6
20260506033337 57 306 10.4 13.0 0.00 0.00 0.00 77 1016.4
20260506033002 57 296 9.6 15.6 0.00 0.00 0.00 77 1016.2
20260506032328 57 288 12.2 15.6 0.00 0.00 0.00 76 1016.1
20260506031553 57 321 11.3 13.9 0.00 0.00 0.00 75 1016.0
20260506031357 58 297 11.3 16.5 0.00 0.00 0.00 75 1016.1
20260506030327 58 294 12.2 16.5 0.00 0.00 0.00 74 1016.0
20260506030022 58 309 13.0 16.5 0.00 0.00 0.00 74 1015.8
20260506025333 59 317 12.2 15.6 0.00 0.00 0.00 73 1015.9
20260506024511 59 281 13.0 20.0 0.00 0.00 0.00 72 1015.7
20260506024323 59 312 13.9 20.0 0.00 0.00 0.00 71 1015.8
20260506023329 60 309 13.0 16.5 0.00 0.00 0.00 70 1015.8
20260506023005 60 298 12.2 16.5 0.00 0.00 0.00 69 1015.6
20260506022339 61 296 12.2 20.9 0.00 0.00 0.00 68 1015.6
20260506021519 61 304 14.8 19.1 0.00 0.00 0.00 67 1015.5
20260506021329 61 296 14.8 18.2 0.00 0.00 0.00 67 1015.5
20260506020335 62 297 13.9 19.1 0.00 0.00 0.00 66 1015.5
20260506020126 61 318 14.8 19.1 0.00 0.00 0.00 66 1015.5
20260506015325 62 314 13.0 19.1 0.00 0.00 0.00 65 1015.5
20260506014514 62 319 12.2 19.1 0.00 0.00 0.00 64 1015.4
20260506014336 63 285 13.9 19.1 0.00 0.00 0.00 64 1015.5
20260506013326 64 322 12.2 18.2 0.00 0.00 0.00 63 1015.3
20260506013006 63 309 13.0 18.2 0.00 0.00 0.00 63 1015.3
20260506012339 64 304 13.0 19.1 0.00 0.00 0.00 62 1015.4
20260506011525 64 317 12.2 19.1 0.00 0.00 0.00 61 1015.3
20260506011324 65 322 13.9 21.7 0.00 0.00 0.00 61 1015.4
20260506010326 65 325 13.0 21.7 0.00 0.00 0.00 61 1015.5
20260506010045 64 306 14.8 21.7 0.00 0.00 0.00 61 1015.3
20260506005353 65 277 15.6 21.7 0.00 0.00 0.00 59 1015.4
20260506004526 65 274 13.0 18.2 0.00 0.00 0.00 58 1015.3
20260506004325 65 313 12.2 17.4 0.00 0.00 0.00 58 1015.4
20260506003334 65 309 12.2 16.5 0.00 0.00 0.00 58 1015.3
20260506003020 64 317 13.0 18.2 0.00 0.00 0.00 59 1015.2
20260506002326 65 284 13.0 18.2 0.00 0.00 0.00 59 1015.3
20260506001538 64 282 12.2 18.2 0.00 0.00 0.00 60 1015.1
20260506001337 64 264 12.2 16.5 0.00 0.00 0.00 60 1015.2
20260506000323 64 300 11.3 18.2 0.00 0.00 0.00 60 1015.2
20260506000006 64 306 13.9 18.2 0.00 0.00 0.00 59 1015.0
20260505235335 65 274 13.0 17.4 0.00 0.00 0.00 59 1015.0
20260505234523 65 281 13.0 20.0 0.00 0.00 0.00 58 1015.1
20260505234326 65 302 13.0 20.0 0.00 0.00 0.00 58 1015.0
20260505233334 66 262 13.0 16.5 0.00 0.00 0.00 57 1015.0
20260505233014 65 275 12.2 16.5 0.00 0.00 0.00 57 1014.9
20260505232325 66 280 12.2 20.0 0.00 0.00 0.00 56 1015.1
20260505231530 67 297 13.0 17.4 0.00 0.00 0.00 54 1014.9
20260505231334 67 307 13.0 17.4 0.00 0.00 0.00 54 1015.0
20260505230325 68 267 12.2 18.2 0.00 0.00 0.00 53 1015.0
20260505230031 66 298 10.4 18.2 0.00 0.00 0.00 54 1015.1
20260505225353 66 288 12.2 17.4 0.00 0.00 0.00 54 1015.1
20260505224511 66 298 10.4 18.2 0.00 0.00 0.00 54 1015.2
20260505224337 66 271 12.2 20.0 0.00 0.00 0.00 53 1015.3
20260505223325 67 316 12.2 19.1 0.00 0.00 0.00 53 1015.3
20260505223001 66 306 12.2 20.0 0.00 0.00 0.00 54 1015.2
20260505222335 66 316 14.8 20.0 0.00 0.00 0.00 53 1015.3
20260505221515 66 284 11.3 18.2 0.00 0.00 0.00 54 1015.1
20260505221324 66 283 13.0 18.2 0.00 0.00 0.00 53 1015.2
20260505220334 67 267 10.4 20.0 0.00 0.00 0.00 53 1015.3
20260505220107 66 265 13.0 20.0 0.00 0.00 0.00 53 1015.2
20260505215345 66 268 10.4 14.8 0.00 0.00 0.00 53 1015.5
20260505214534 65 294 10.4 15.6 0.00 0.00 0.00 52 1015.4
20260505214329 66 268 12.2 17.4 0.00 0.00 0.00 51 1015.5
20260505213333 66 271 8.7 15.6 0.00 0.00 0.00 50 1015.6
20260505213007 66 305 12.2 15.6 0.00 0.00 0.00 50 1015.6
20260505212337 66 313 9.6 15.6 0.00 0.00 0.00 51 1015.6
20260505211626 66 299 8.7 16.5 0.00 0.00 0.00 50 1015.6
20260505211352 66 292 9.6 16.5 0.00 0.00 0.00 50 1015.6
20260505210400 65 316 5.2 15.6 0.00 0.00 0.00 49 1015.7
20260505210002 65 321 12.2 15.6 0.00 0.00 0.00 49 1015.6
20260505205325 65 322 9.6 14.8 0.00 0.00 0.00 49 1015.9
20260505204608 64 313 8.7 14.8 0.00 0.00 0.00 49 1015.8
20260505204324 64 315 7.0 14.8 0.00 0.00 0.00 50 1016.0
20260505203326 64 276 9.6 13.9 0.00 0.00 0.00 54 1015.9
20260505203030 63 249 7.8 13.9 0.00 0.00 0.00 53 1015.7
20260505202337 64 270 9.6 15.6 0.00 0.00 0.00 53 1015.9
20260505201522 62 281 6.1 14.8 0.00 0.00 0.00 57 1015.9
20260505201326 63 313 10.4 14.8 0.00 0.00 0.00 56 1016.1
20260505200330 62 300 10.4 14.8 0.00 0.00 0.00 56 1016.2
20260505195339 62 296 7.8 13.9 0.00 0.00 0.00 58 1016.2
20260505194514 62 324 10.4 15.6 0.00 0.00 0.00 58 1016.2
20260505194331 63 327 12.2 15.6 0.00 0.00 0.00 57 1016.2
20260505193335 63 325 9.6 15.6 0.00 0.00 0.00 58 1016.2
20260505193040 62 344 8.7 15.6 0.00 0.00 0.00 59 1016.1
20260505192345 62 325 10.4 15.6 0.00 0.00 0.00 59 1016.3
20260505191603 62 294 11.3 14.8 0.00 0.00 0.00 59 1016.2
20260505191325 62 283 9.6 15.6 0.00 0.00 0.00 59 1016.4
20260505190338 63 298 11.3 15.6 0.00 0.00 0.00 58 1016.4
20260505190032 62 294 10.4 16.5 0.00 0.00 0.00 59 1016.3
20260505185342 63 292 12.2 19.1 0.00 0.00 0.00 59 1016.3
20260505184521 62 304 12.2 17.4 0.00 0.00 0.00 58 1016.2
20260505184332 63 286 10.4 17.4 0.00 0.00 0.00 58 1016.3
20260505183322 62 302 10.4 17.4 0.00 0.00 0.00 59 1016.2
20260505183014 62 302 13.0 17.4 0.00 0.00 0.00 58 1016.1
20260505182331 62 340 11.3 16.5 0.00 0.00 0.00 58 1016.1
20260505181526 62 323 12.2 17.4 0.00 0.00 0.00 57 1016.0
20260505181339 63 319 9.6 17.4 0.00 0.00 0.00 58 1016.0
20260505180325 63 266 7.8 13.9 0.00 0.00 0.00 59 1015.9
20260505180014 62 332 9.6 13.9 0.00 0.00 0.00 58 1015.9
20260505175337 62 315 9.6 13.9 0.00 0.00 0.00 60 1015.9
20260505174537 61 311 7.8 13.0 0.00 0.00 0.00 61 1015.8
20260505174327 61 271 8.7 13.0 0.00 0.00 0.00 61 1015.9
20260505173335 61 284 7.8 14.8 0.00 0.00 0.00 63 1015.8
20260505173105 60 319 6.1 14.8 0.00 0.00 0.00 64 1015.6
20260505172322 60 325 7.8 13.0 0.00 0.00 0.00 66 1015.8
20260505171518 59 265 7.8 10.4 0.00 0.00 0.00 70 1015.7
20260505171331 59 321 6.1 8.7 0.00 0.00 0.00 70 1015.9
20260505170322 59 11 3.5 10.4 0.00 0.00 0.00 71 1016.0
20260505170004 58 257 6.1 10.4 0.00 0.00 0.00 72 1015.9
20260505165332 58 259 6.1 9.6 0.00 0.00 0.00 73 1015.9
20260505164516 57 254 2.6 9.6 0.00 0.00 0.00 75 1015.8
20260505164336 57 234 5.2 9.6 0.00 0.00 0.00 75 1015.9
20260505163329 56 247 2.6 4.3 0.00 0.00 0.00 77 1016.1
20260505163014 56 248 3.5 6.1 0.00 0.00 0.00 77 1015.9
20260505162338 56 244 3.5 6.1 0.00 0.00 0.00 77 1016.1
20260505161524 55 258 3.5 7.0 0.00 0.00 0.00 77 1015.8
20260505161327 56 271 3.5 7.0 0.00 0.00 0.00 78 1015.9
20260505160338 55 256 3.5 5.2 0.00 0.00 0.00 78 1015.8
20260505153327 54 209 0.9 2.6 0.00 0.00 0.00 80 1016.0
20260505153034 54 209 0.9 2.6 0.00 0.00 0.00 80 1015.8
20260505152354 54 235 0.0 3.5 0.00 0.00 0.00 80 1015.9
20260505151515 53 226 2.6 3.5 0.00 0.00 0.00 81 1015.7
20260505151324 53 250 1.7 3.5 0.00 0.00 0.00 81 1015.8
20260505150333 53 250 0.0 2.6 0.00 0.00 0.00 82 1015.7
20260505140326 51 102 0.0 0.0 0.00 0.00 0.00 87 1015.4
20260505140110 51 102 0.0 0.0 0.00 0.00 0.00 87 1015.3
20260505124528 50 342 1.7 3.5 0.00 0.00 0.00 85 1014.9
20260505124339 50 317 1.7 3.5 0.00 0.00 0.00 85 1014.9
20260505123326 51 343 2.6 3.5 0.00 0.00 0.00 85 1015.0
20260505123101 51 340 2.6 3.5 0.00 0.00 0.00 85 1014.9
20260505122331 51 344 2.6 3.5 0.00 0.00 0.00 85 1014.9
20260505121507 51 347 2.6 3.5 0.00 0.00 0.00 85 1014.8
20260505121321 51 336 3.5 3.5 0.00 0.00 0.00 85 1014.9
20260505120332 51 333 0.0 0.0 0.00 0.00 0.00 85 1014.8
20260505120001 51 304 0.0 0.0 0.00 0.00 0.00 85 1014.8
20260505115322 52 304 0.0 0.0 0.00 0.00 0.00 85 1014.7
20260505114517 51 304 0.0 0.0 0.00 0.00 0.00 85 1014.6
20260505114334 52 304 0.0 0.0 0.00 0.00 0.00 85 1014.7
20260505113337 52 304 0.0 0.0 0.00 0.00 0.00 84 1014.7
20260505113004 51 304 0.0 0.0 0.00 0.00 0.00 84 1014.7
20260505112328 52 304 0.0 0.0 0.00 0.00 0.00 84 1014.7
20260505111506 52 304 0.0 2.6 0.00 0.00 0.00 84 1014.7
20260505111332 52 304 0.0 2.6 0.00 0.00 0.00 84 1014.7
20260505110322 53 304 1.7 4.3 0.00 0.00 0.00 84 1014.8
20260505110118 52 293 1.7 6.1 0.00 0.00 0.00 84 1014.8
20260505101533 52 286 1.7 4.3 0.00 0.00 0.00 83 1014.9
20260505101323 53 273 3.5 5.2 0.00 0.00 0.00 83 1014.9
20260505100334 53 281 2.6 6.1 0.00 0.00 0.00 83 1015.0
20260505100012 52 298 2.6 6.1 0.00 0.00 0.00 83 1014.9
20260505095338 52 306 2.6 7.0 0.00 0.00 0.00 83 1014.9
20260505094524 52 294 3.5 7.0 0.00 0.00 0.00 83 1014.8
20260505094328 52 317 4.3 7.0 0.00 0.00 0.00 83 1014.8
20260505093339 52 308 4.3 7.0 0.00 0.00 0.00 84 1014.8
20260505093017 52 296 4.3 7.0 0.00 0.00 0.00 84 1014.7
20260505092327 52 299 4.3 7.0 0.00 0.00 0.00 83 1014.8
20260505091528 52 294 2.6 4.3 0.00 0.00 0.00 83 1014.8
20260505091335 52 293 2.6 4.3 0.00 0.00 0.00 83 1014.8
20260505090325 53 285 2.6 6.1 0.00 0.00 0.00 83 1015.0
20260505090022 52 261 2.6 6.1 0.00 0.00 0.00 83 1015.0
20260505085352 53 263 4.3 7.0 0.00 0.00 0.00 83 1015.0